Regional Weather Roundup
Issued by NWS

Home | Current Version | Previous Version | Text Only | Print | Product List | Glossary Off
Versions: 1 2 3 4 5 6 7 8 9 10 11 12 13 14 15 16 17 18 19 20 21 22 23 24 25 26 27 28 29 30 31 32 33 34 35 36 37 38 39 40 41 42 43 44 45 46 47 48 49 50

642
ASUS43 KMPX 241610
RWRMN
WEATHER ROUNDUP FOR MINNESOTA
NATIONAL WEATHER SERVICE TWIN CITIES/CHANHASSEN MN
1000 AM CST FRI NOV 24 2017


NOTE: "FAIR" INDICATES FEW OR NO CLOUDS BELOW 12,000 FEET WITH NO
SIGNIFICANT WEATHER AND/OR OBSTRUCTIONS TO VISIBILITY. N/A MEANS
CURRENT SKY AND/OR WEATHER CONDITIONS ARE NOT AVAILABLE.

MNZ060>063-068>070-241700-
   Twin Cities Metro

CITY           SKY/WX    TMP DP  RH WIND       PRES   REMARKS
TWIN CITIES    CLOUDY    53  40  61 W8        29.34S
ST PAUL        CLOUDY    48  40  73 N3        29.35S
CRYSTAL        SUNNY     50  37  61 SW9       29.33R
BLAINE         MOSUNNY   52  39  62 SW10      29.34R
LAKEVILLE      CLOUDY    52  39  62 SW10G16   29.35R
EDEN PRAIRIE   SUNNY     51  38  60 W9        29.33S
SOUTH ST PAUL  CLOUDY    54  39  57 S3        29.34R
LAKE ELMO      FAIR      50  39  66 SW6       29.35R
$$
MNZ001>005-007-008-013>017-022>024-027-028-241700-
   Northwest Minnesota

CITY           SKY/WX    TMP DP  RH WIND       PRES   REMARKS
BEMIDJI        CLOUDY    41  40  96 NW9       29.29R
HALLOCK        CLOUDY    36  34  93 SW6       29.35R
ROSEAU         CLOUDY    37  34  87 W7        29.32R
WARROAD        CLOUDY    37  34  87 W9        29.31R
THIEF RVR FALL LGT RAIN  37  36  96 W9        29.37R
CROOKSTON      MIX PCPN  37  36  93 NW10      29.38R
FOSSTON        CLOUDY    37  37 100 W7        29.34R
DETROIT LAKES  MOSUNNY   43  41  93 W9        29.36R
MOORHEAD       CLOUDY    43  39  87 CALM      29.38R
PARK RAPIDS    LGT RAIN  43  40  89 S6        29.28F
MAHNOMEN       CLOUDY    40  39  95 W10       29.35R
$$
MNZ006-009>011-018-025>026-241700-
   North Central Minnesota

CITY           SKY/WX    TMP DP  RH WIND       PRES   REMARKS
BAUDETTE       CLOUDY    37  33  85 NW12      29.27R
FLAG ISLAND    CLOUDY    36  30  80 W8        29.27R
INTL FALLS     CLOUDY    40  34  79 W8        29.23R
WASKISH        LGT RAIN  37  36  93 W8        29.29R
BIG FORK       RAIN      39  37  93 CALM      29.26R
LONGVILLE      PTSUNNY   43  41  93 SW5       29.29S
GRAND RAPIDS   CLOUDY    45  38  76 W5        29.29R
CRANE LAKE     CLOUDY    36  34  93 CALM      29.25S
ORR            CLOUDY    39  36  87 CALM      29.21F
COOK           RAIN      39  37  93 NW3       29.24S
WALKER         CLOUDY    44  41  91 SW5       29.26F
$$
MNZ012-019>021-037-241700-
   Northeast Minnesota

CITY           SKY/WX    TMP DP  RH WIND       PRES   REMARKS
DULUTH         CLOUDY    37  36  96 W13       29.26R
ELY            LGT RAIN  39  36  87 W3        29.23S
HIBBING        LGT RAIN  38  37  97 VRB3      29.25S
EVELETH        MOSUNNY   37  34  87 W3        29.27R
DULUTH HARBOR  CLOUDY    43  37  81 SW13      29.26F
TWO HARBORS    CLOUDY    43  37  81 SW8       29.23F
SILVER BAY     LGT RAIN  43  39  87 NW6       29.22R
GRAND MARAIS     N/A     41  39  93 VRB5      29.19F
G MARAIS ARPRT CLOUDY    41  34  75 W7        29.19F
$$
MNZ029>031-032-039>041-046>048-054>057-064-241700-
   West Central Minnesota

CITY           SKY/WX    TMP DP  RH WIND       PRES   REMARKS
FERGUS FALLS   LGT RAIN  43  41  93 CALM      29.37F
WHEATON        LGT RAIN  50  37  62 W6        29.44R
MORRIS         MOSUNNY   52  39  62 NW14      29.38R
ALEXANDRIA     MOSUNNY   51  39  63 NW16      29.38R
ELBOW LAKE     RAIN      43  40  88 NW6       29.38S
WADENA         LGT RAIN  45  39  81 W5        29.33S
GLENWOOD       SUNNY     50  39  66 NW16      29.37R
APPLETON       CLOUDY    54  37  54 NW12G18   29.38S
BENSON         MOSUNNY   54  39  58 N17       29.39R
ORTONVILLE     PTSUNNY   54  37  54 NW14G20   29.41R
MADISON        CLOUDY    57  39  51 NW12      29.40R
WILLMAR        FAIR      48  39  71 NW13      29.38R
$$
MNZ033>034-036-042>043-049>051-058-059-241700-
   Central Minnesota

CITY           SKY/WX    TMP DP  RH WIND       PRES   REMARKS
ST CLOUD       MOSUNNY   51  39  63 NW6       29.31F
SAUK CENTRE    FAIR      50  39  65 NW15      29.35R
PAYNESVILLE    CLOUDY    54  40  60 W9G17     29.35S
AITKIN         CLOUDY    43  37  81 CALM      29.27F
PINE RIVER     MOSUNNY   45  37  76 W6        29.35R
BRAINERD       PTSUNNY   42  38  85 SW6       29.32R
STAPLES        PTSUNNY   46  37  71 W12       29.34R
LONG PRAIRIE   FAIR      50  37  62 W15G21    29.35R
LITTLE FALLS   MOSUNNY   48  32  53 W5        29.34R
LITCHFIELD     CLOUDY    52  39  62 W10       29.35R
BUFFALO        SUNNY     47  38  68 SW8       29.36R
MAPLE LAKE     SUNNY     49  41  74 W7        29.35R
HUTCHINSON     CLOUDY    50  41  72 SW9       29.35F
$$
MNZ037-044-045-052-053-241700-
   East Central Minnesota

CITY           SKY/WX    TMP DP  RH WIND       PRES   REMARKS
PRINCETON      SUNNY     52  39  62 W10       29.34R
MORA           MOSUNNY   45  37  76 W3        29.33S
CAMBRIDGE      SUNNY     54  39  58 SW7       29.33R
RUSH CITY      MOSUNNY   47  38  70 SW5       29.32F
MOOSE LAKE     DRIZZLE   41  34  75 CALM      29.26F
HINCKLEY       FAIR      46  37  71 W6        29.31F
CLOQUET        CLOUDY    39  36  87 SW7       29.28S
MCGREGOR       CLOUDY    43  37  81 SW7       29.30S
$$
MNZ071>073-080-081-089-090-097-098-241700-
   Southwest Minnesota

CITY           SKY/WX    TMP DP  RH WIND       PRES   REMARKS
MONTEVIDEO     MOSUNNY   52  39  62 N12       29.39R
GRANITE FALLS  MOSUNNY   54  42  62 W13       29.39R
CANBY          CLOUDY    57  39  50 NW15      29.43R
MARSHALL       MOSUNNY   57  39  51 NW16      29.40R
REDWOOD FALLS  PTSUNNY   57  38  48 NW15G24   29.37R
OLIVIA         CLOUDY    50  39  66 W13       29.36S
PIPESTONE      MOSUNNY   46  39  76 W8        29.42R
WINDOM         SUNNY     52  36  54 W13       29.40R
WORTHINGTON    MOSUNNY   52  40  63 SW15      29.41R
JACKSON        SUNNY     52  39  62 SW9       29.39F
SLAYTON        CLOUDY    49  40  70 W14       29.41R
$$
MNZ065>067-074>077-082>085-091>093-241700-
   South Central Minnesota

CITY           SKY/WX    TMP DP  RH WIND       PRES   REMARKS
MANKATO        SUNNY     50  39  66 SW12      29.37F
NEW ULM        SUNNY     54  39  58 CALM      29.37R
ST JAMES       SUNNY     55  41  58 W10       29.40R
FAIRMONT       SUNNY     51  40  65 SW9       29.39S
GLENCOE        CLOUDY    50  41  71 SW10      29.35R
FARIBAULT      SUNNY     52  39  62 S10G17    29.35F
OWATONNA       SUNNY     54  39  58 SW18      29.38S
WASECA         SUNNY     52  39  62 S13       29.39S
ALBERT LEA     SUNNY     52  36  54 S10G20    29.37F
$$
MNZ078>079-086>088-094>096-241700-
   Southeast Minnesota

CITY           SKY/WX    TMP DP  RH WIND       PRES   REMARKS
ROCHESTER      SUNNY     52  39  61 SW20      29.39F
RED WING       MOSUNNY   52  36  54 S5        29.34F
STANTON        SUNNY     52  40  62 SW15      29.33F
DODGE CENTER   SUNNY     50  37  62 SW17G26   29.36F
WINONA         SUNNY     54  36  50 SW7       29.41F
AUSTIN         SUNNY     48  37  66 S15       29.38F
PRESTON        SUNNY     51  37  57 SW16      29.41F
$$
ABBREVIATIONS USED IN REMARKS
   TC - TEMPERATURES IN CELSIUS
  WCI - WIND CHILL INDEX
   HX - HEAT INDEX
  VSB - VISIBILITY
$$




USA.gov is the U.S. government's official web portal to all federal, state and local government web resources and services.